GW0244 Weather Reports


time (UTC)temp
C
wind
direction
speed
KPH
gust
KPH
rain 1hr
cm
rain 24hr
cm
rain mn
cm
humidity
%
barometer
mb
20260506081554 14 0 0.0 0.0 0.00 0.00 0.00 85 1017.5
20260506073045 14 0 0.0 1.6 0.00 0.00 0.00 84 1017.0
20260506071545 14 165 0.0 1.6 0.00 0.00 0.00 84 1016.9
20260506061548 14 0 0.0 3.2 0.00 0.00 0.00 84 1016.6
20260506044642 13 0 0.0 0.0 0.00 0.00 0.00 84 1016.2
20260506043049 13 0 0.0 0.0 0.00 0.00 0.00 83 1016.0
20260506041601 14 0 0.0 0.0 0.00 0.00 0.00 81 1015.7
20260506040050 15 0 0.0 0.0 0.00 0.00 0.00 80 1015.6
20260506034621 15 0 0.0 0.0 0.00 0.00 0.00 78 1015.5
20260506033049 16 0 0.0 0.0 0.00 0.00 0.00 76 1015.2
20260506031548 16 0 0.0 4.8 0.00 0.00 0.00 74 1015.1
20260506030048 16 105 0.0 3.2 0.00 0.00 0.00 73 1014.9
20260506024551 16 0 0.0 6.4 0.00 0.00 0.00 72 1014.8
20260506023104 17 234 0.0 4.8 0.00 0.00 0.00 71 1014.9
20260506021546 17 0 0.0 1.6 0.00 0.00 0.00 71 1014.8
20260506020046 17 327 0.0 3.2 0.00 0.00 0.00 70 1015.0
20260506014549 17 0 0.0 1.6 0.00 0.00 0.00 70 1015.0
20260506013043 17 0 0.0 3.2 0.00 0.00 0.00 72 1015.1
20260506011555 17 0 0.0 3.2 0.00 0.00 0.00 72 1015.1
20260506010051 16 250 3.2 6.4 0.00 0.00 0.00 72 1014.9
20260506004611 17 250 0.0 4.8 0.00 0.00 0.00 71 1015.1
20260506003056 17 184 1.6 4.8 0.00 0.00 0.00 70 1015.1
20260506001541 17 0 0.0 3.2 0.00 0.00 0.00 71 1015.2
20260506000046 17 0 0.0 4.8 0.00 0.00 0.00 71 1015.2
20260505234609 17 0 0.0 4.8 0.00 0.00 0.00 71 1015.5
20260505233041 17 0 0.0 3.2 0.00 0.00 0.00 70 1015.4
20260505231545 17 13 1.6 4.8 0.00 0.00 0.00 71 1015.5
20260505230045 17 0 0.0 3.2 0.00 0.00 0.00 71 1015.5
20260505224549 16 0 0.0 4.8 0.00 0.00 0.00 72 1015.6
20260505223044 17 299 0.0 4.8 0.00 0.00 0.00 71 1015.7
20260505221540 16 157 1.6 9.7 0.00 0.00 0.00 72 1015.8
20260505220057 16 0 0.0 8.0 0.00 0.00 0.00 72 1015.9
20260505214549 17 221 0.0 6.4 0.00 0.00 0.00 70 1015.9
20260505213046 17 0 0.0 3.2 0.00 0.00 0.00 72 1015.9
20260505211548 16 0 0.0 3.2 0.00 0.00 0.00 73 1016.0
20260505210050 16 225 0.0 6.4 0.00 0.00 0.00 74 1016.1
20260505204550 16 221 3.2 4.8 0.00 0.00 0.00 74 1016.2
20260505203049 15 261 4.8 9.7 0.00 0.00 0.00 75 1016.2
20260505201544 16 229 1.6 4.8 0.00 0.00 0.00 73 1016.2
20260505200049 16 221 1.6 6.4 0.00 0.00 0.00 74 1016.3
20260505194545 16 254 0.0 4.8 0.00 0.00 0.00 72 1016.3
20260505193045 15 0 0.0 3.2 0.00 0.00 0.00 76 1016.4
20260505191555 14 199 0.0 6.4 0.00 0.00 0.00 77 1016.4
20260505190045 15 184 0.0 4.8 0.00 0.00 0.00 78 1016.5
20260505184548 14 184 1.6 8.0 0.00 0.00 0.00 78 1016.6
20260505183041 13 222 1.6 8.0 0.00 0.00 0.00 80 1016.6
20260505181543 13 184 1.6 4.8 0.00 0.00 0.00 82 1016.4
20260505180054 13 161 0.0 8.0 0.00 0.00 0.00 84 1016.5
20260505174605 12 180 3.2 11.3 0.00 0.00 0.00 84 1016.5
20260505173044 12 193 1.6 6.4 0.00 0.00 0.00 84 1016.4
20260505171543 12 0 1.6 6.4 0.00 0.00 0.00 85 1016.3
20260505170100 12 193 3.2 6.4 0.00 0.00 0.00 85 1016.2
20260505164543 12 234 3.2 6.4 0.00 0.00 0.00 86 1016.2
20260505163044 12 0 0.0 4.8 0.00 0.00 0.00 86 1016.1
20260505161543 12 223 1.6 8.0 0.00 0.00 0.00 87 1016.0
20260505153053 11 0 1.6 6.4 0.00 0.00 0.00 89 1016.0
20260505151549 11 189 1.6 6.4 0.00 0.00 0.00 89 1015.9
20260505124550 11 175 1.6 6.4 0.00 0.00 0.00 87 1015.0
20260505123107 11 244 0.0 4.8 0.00 0.00 0.00 86 1014.9
20260505121546 11 176 1.6 6.4 0.00 0.00 0.00 86 1014.9
20260505120046 11 183 1.6 6.4 0.00 0.00 0.00 86 1014.9
20260505114610 11 225 1.6 4.8 0.00 0.00 0.00 86 1014.7
20260505113040 11 166 3.2 6.4 0.00 0.00 0.00 86 1014.7
20260505111558 11 140 0.0 4.8 0.00 0.00 0.00 86 1014.7
20260505101545 11 197 0.0 6.4 0.00 0.00 0.00 86 1014.2
20260505100043 11 211 1.6 11.3 0.00 0.00 0.00 86 1014.2
20260505094545 11 210 3.2 8.0 0.00 0.00 0.00 86 1014.3
20260505093043 11 204 0.0 9.7 0.00 0.00 0.00 85 1014.2
20260505091542 11 188 1.6 6.4 0.00 0.00 0.00 85 1014.0
20260505090054 12 216 3.2 9.7 0.00 0.00 0.00 84 1014.0
20260505084541 12 222 3.2 9.7 0.00 0.00 0.00 84 1013.9
20260505083050 12 211 3.2 9.7 0.00 0.00 0.00 84 1014.0